Weather Roundup
Issued by NWS Chicago, IL

Home | Current Version | Previous Version | Graphics & Text | Print | Product List | Glossary On
Versions: 1 2 3 4 5 6 7 8 9 10 11 12 13 14 15 16 17 18 19 20 21 22 23 24 25 26 27 28 29 30 31 32 33 34 35 36 37 38 39 40 41 42 43 44 45 46 47 48 49 50
000
NZUS59 KLOT 201106
HRRLOT

CHICAGO AREA WEATHER ROUNDUP
NATIONAL WEATHER SERVICE CHICAGO/ROMEOVILLE IL
500 AM CST SAT DEC 20 2014

NOTE: "FAIR" INDICATES FEW OR NO CLOUDS BELOW 12,000 FEET WITH NO
SIGNIFICANT WEATHER AND/OR OBSTRUCTIONS TO VISIBILITY.

* THESE STATIONS ARE NOT UNDER NWS QUALITY CONTROL. THEY ALSO MAY NOT
  REPORT WEATHER SUCH AS PRECIPITATION OR FOG.

ILZ005-006-012>014-019>023-201200-
NORTHEAST ILLINOIS

CITY           SKY/WX    TMP DP  RH WIND       PRES   REMARKS
OHARE          CLOUDY    29  23  78 CALM      30.26F
MIDWAY         CLOUDY    32  25  75 SW3       30.28S
AURORA         CLOUDY    28  23  81 CALM      30.27F HAZE
LANSING*       CLOUDY    29  26  88 CALM      30.28S
JOLIET*        CLOUDY    28  24  84 CALM      30.29R
WAUKEGAN       CLOUDY    27  21  78 W3        30.27S
DUPAGE AIRPORT CLOUDY    28  24  85 CALM      30.26S
WHEELING       CLOUDY    28  23  81 NW3       30.29S
KANKAKEE*      CLOUDY    29  27  94 CALM      30.29R FOG
MORRIS*        CLOUDY    27  25  94 CALM      30.27S
LEWIS AIRPORT* CLOUDY    29  27  94 W3        30.28R FOG
NORTHERLY IS     N/A     32  23  70 S3          N/A
$$

WIZ051-052-058>065-066-070>072-201200-
SOUTHEAST WISCONSIN

CITY           SKY/WX    TMP DP  RH WIND       PRES   REMARKS
MILWAUKEE      CLOUDY    27  19  72 W6        30.27S WCI  20
KENOSHA*       CLOUDY    27  21  78 NW6       30.27S WCI  20
RACINE*        CLOUDY    27  19  72 W6        30.29S WCI  20
BURLINGTON     CLOUDY    24  20  85 CALM      30.26S
WEST BEND      CLOUDY    27  19  74 CALM      30.25S
$$

INZ001>003-010>013-019-020-201200-
NORTHWEST INDIANA

CITY           SKY/WX    TMP DP  RH WIND       PRES   REMARKS
GARY*          CLOUDY    32  23  69 CALM      30.29S
MICHIGAN CITY* NOT AVBL
RENSSELAER*    NOT AVBL
VALPARAISO     CLOUDY    29  24  82 W3        30.28R
$$

LMZ740>746-201200-
SOUTHERN LAKE MICHIGAN

STATION/POSITION TIME  SKY/WX   TEMP WIND        PRES    VSBY
                                AIR  DIR/SP/G
                 (UTC)          (F)  (DEG/KT/KT) (MB)    (MI)
HARRISON CRIB    1100            31  250/  6/  7   N/A
BURNHAM HARBOR   1100            32  200/  2/  6   N/A
CALUMET HARBOR   1100            31  190/  2/  3 1024.0R
BURNS HARBOR     NOT AVBL
MICHIGAN CITY    NOT AVBL
$$

ABBREVIATIONS USED IN REMARKS
   TC - TEMPERATURE IN CELSIUS
  WCI - WIND CHILL INDEX
   HX - HEAT INDEX
  VSB - VISIBILITY
$$


USA.gov is the U.S. government's official web portal to all federal, state and local government web resources and services.